Temperature
26 24 24 25 25 26 25 25 25 25 25 24 23 22 22 22 22 21 21 21 21 21 21 21 21 20 20 20 19 19 19 19 18 18 18 18 18 18 18 18 18 17 17 17
24 25 26 25 25 25 25 25 25 25 25 24 23 23 22 21 21 22 21 21 21 21 21 21 21 20 20 20 20 19 19 19 18 18 18 18 18 18 18 18 18 17 17 17
26 26 26 26 26 26 25 25 25 24 24 23 23 22 22 22 22 22 22 22 22 22 21 21 21 21 20 20 20 19 19 19 19 18 18 18 18 18 18 18 18 17 17 17
26 26 26 27 26 26 25 25 25 24 23 22 23 22 22 21 21 21 22 22 22 22 22 21 21 21 21 20 20 19 19 19 18 18 18 18 18 18 18 18 18 17 17 17
26 26 27 27 27 26 26 25 24 23 22 21 21 21 21 21 21 21 21 22 22 22 22 22 22 21 21 20 20 19 19 19 18 18 18 18 18 18 18 17 17 17 17 17
25 26 27 27 26 26 24 23 22 20 20 21 22 21 21 20 21 21 21 22 23 23 22 22 22 21 21 20 20 20 19 19 19 18 18 18 18 18 17 17 17 17 17 17
25 26 26 27 26 25 24 22 21 22 20 21 21 21 21 21 21 21 21 22 23 23 22 22 22 21 21 21 20 20 19 19 19 18 18 18 18 17 17 17 17 17 17 17
25 24 26 26 26 25 24 22 21 22 21 20 21 21 21 22 22 23 23 23 23 23 22 22 22 22 21 21 20 20 20 19 19 18 18 18 18 17 17 17 17 17 17 17
23 24 25 26 26 24 23 21 21 19 20 20 20 21 21 22 21 21 22 22 23 23 22 22 22 22 21 21 20 20 20 19 19 19 18 18 18 17 17 17 17 17 17 17
22 24 25 25 25 23 22 19 18 19 20 21 22 22 21 22 21 20 20 21 22 23 23 22 22 22 21 21 20 20 20 19 19 18 18 18 18 17 17 17 17 17 17 17
22 23 24 24 25 24 23 21 18 17 19 20 21 21 22 21 21 20 20 21 22 23 23 23 22 22 21 21 20 20 20 19 19 18 18 18 18 17 17 17 17 17 17 17
20 19 21 23 23 23 24 21 19 21 20 18 20 21 22 21 21 21 21 22 23 23 23 23 22 21 21 21 20 20 19 19 19 18 18 18 18 18 17 17 17 17 17 17
20 19 21 22 22 22 23 21 19 17 16 17 20 22 21 20 20 21 21 22 22 23 22 22 22 21 21 20 20 20 19 19 19 18 18 18 18 17 17 17 17 17 17 16
20 18 20 22 21 22 23 22 20 19 18 18 20 22 21 20 20 20 21 22 22 22 22 22 22 22 21 20 20 20 19 19 19 18 18 18 18 17 17 17 17 16 16 16
19 19 20 21 21 22 23 23 21 21 20 20 21 20 21 20 20 21 21 21 21 22 22 22 22 21 21 21 20 20 19 19 18 18 18 18 17 17 17 17 17 16 16 16
16 19 20 21 22 22 23 22 22 22 21 21 21 21 20 20 21 21 21 21 21 21 22 22 21 21 21 20 20 20 19 19 19 18 18 18 17 17 17 17 16 16 16 16
16 18 19 19 20 22 22 22 22 22 21 21 21 21 20 19 19 20 21 21 21 22 22 22 22 21 21 20 20 20 19 19 18 18 18 17 17 17 17 16 16 16 16 15
16 16 15 17 21 22 21 21 21 21 21 20 20 20 19 20 21 22 22 22 22 22 22 22 22 21 21 20 20 19 19 19 18 18 18 17 17 16 16 16 16 15 15 15
14 15 15 16 18 20 21 21 21 21 21 20 19 19 19 19 20 20 21 22 22 22 22 22 22 21 21 20 20 19 19 18 18 18 17 17 17 16 16 16 15 15 15 15
13 14 15 15 19 19 20 21 21 21 21 20 19 18 18 19 19 19 21 21 22 21 21 21 21 21 20 20 19 19 19 18 18 18 17 17 16 16 16 15 15 15 15 14
15 14 15 16 18 18 19 20 21 21 20 20 19 19 18 19 20 21 21 21 21 21 21 20 20 20 20 20 19 19 18 18 18 17 17 16 16 16 15 15 15 14 14 14
15 15 14 14 17 18 19 19 19 19 20 20 19 19 19 20 20 20 20 20 20 20 20 20 20 20 20 19 19 18 18 17 17 17 16 16 16 15 15 15 14 14 14 14
13 14 14 15 16 17 18 18 20 19 19 20 19 19 20 19 19 20 20 20 20 20 20 19 19 19 19 18 18 18 17 17 16 16 16 16 15 15 15 14 14 14 13 13
14 13 13 14 15 16 17 18 19 20 19 20 20 20 20 20 20 20 19 19 19 19 19 19 19 18 18 17 17 17 17 16 16 16 15 15 15 14 14 14 14 13 13 13
13 13 13 14 14 16 17 18 19 19 19 19 19 19 19 19 19 19 19 19 19 19 19 18 18 18 17 17 17 16 16 16 16 15 15 15 14 14 14 13 13 13 13 12
12 13 13 14 15 14 16 18 18 18 18 19 19 18 19 19 19 19 19 18 18 18 18 18 17 17 17 16 16 16 16 15 15 15 14 14 14 14 13 13 13 12 12 12
Wind_Speed
6 6 2 5 6 5 5 4 2 1 1 4 4 2 3 5 5 5 5 5 5 4 3 3 4 5 5 4 4 4 4 3 3 2 2 1 1 1 1 2 3 4 5 6
6 2 4 4 4 5 5 5 2 2 3 4 3 1 1 4 6 7 7 7 6 4 3 4 4 5 5 4 4 4 4 3 3 3 2 2 1 1 1 1 1 3 4 5
4 4 1 4 5 5 3 6 6 4 4 6 5 4 1 2 2 3 4 5 6 7 6 5 5 5 4 5 5 5 4 4 4 3 2 2 2 1 1 0 1 2 3 4
2 3 2 4 3 6 2 4 7 7 6 1 3 1 5 3 3 5 5 6 6 6 6 5 5 5 5 5 4 4 3 3 3 3 3 3 2 2 2 2 1 1 1 2
2 1 2 2 3 6 4 5 6 5 6 4 4 2 7 2 4 7 6 7 6 6 7 6 6 6 5 5 4 4 3 2 2 3 3 2 2 2 1 1 1 1 1 2
3 2 2 3 2 5 8 8 8 7 5 2 1 2 6 5 7 6 6 7 7 7 7 5 4 4 4 4 4 4 4 3 3 3 3 3 3 2 1 1 1 1 1 1
3 4 2 3 5 4 7 7 5 4 4 4 2 2 8 7 7 7 8 8 7 7 7 6 6 6 5 5 5 4 4 3 2 3 3 3 3 3 3 2 2 2 1 1
2 4 4 2 5 6 5 9 8 6 5 4 2 4 7 6 4 4 5 5 6 7 7 7 7 7 6 6 5 5 4 3 3 3 3 2 2 2 2 2 2 2 2 3
6 5 4 2 2 9 7 4 7 8 4 1 4 6 7 1 0 3 5 6 7 7 7 7 6 7 7 6 6 5 5 3 3 3 2 2 2 2 2 2 1 1 1 2
8 3 4 3 6 6 6 9 7 7 6 2 4 4 5 5 5 5 6 7 7 6 6 6 6 6 5 5 5 5 4 4 3 3 3 2 2 2 2 2 1 1 1 1
5 4 4 3 3 5 5 5 6 6 6 7 3 7 7 10 9 9 10 8 8 8 7 6 5 5 5 4 4 4 4 3 3 2 2 2 2 2 1 1 1 0 0 1
4 5 1 5 3 1 4 7 8 6 4 5 5 7 6 7 9 9 9 7 7 7 6 5 6 6 5 5 4 3 3 3 3 3 2 2 1 2 2 1 1 1 1 1
5 6 3 5 5 4 4 4 5 7 6 6 5 7 4 1 4 6 7 7 6 6 5 5 5 6 5 5 4 3 3 3 2 3 3 2 1 2 2 1 1 2 1 1
6 5 6 8 7 4 2 3 5 6 5 6 7 7 5 3 6 6 7 7 7 7 6 5 5 4 4 4 4 4 3 3 3 3 3 2 1 1 1 1 1 2 2 2
5 4 3 4 3 3 3 4 6 6 8 8 8 8 9 9 9 8 8 7 7 7 6 6 6 5 5 5 5 4 4 3 3 4 3 2 2 1 2 2 2 2 2 2
4 4 2 1 1 2 2 4 6 5 5 5 3 7 7 4 3 5 7 9 9 8 8 6 6 6 6 6 5 4 4 4 4 4 3 2 2 2 2 2 2 2 2 2
2 5 3 2 3 2 3 5 5 4 4 6 7 8 3 3 6 8 9 9 9 9 8 7 7 7 7 6 6 5 4 4 4 4 3 2 2 2 2 2 2 2 2 2
6 5 4 2 2 4 8 3 3 4 3 5 5 4 5 5 4 4 6 8 8 7 7 7 7 6 5 5 5 5 5 4 4 3 3 2 3 3 3 3 3 2 2 2
5 8 5 4 4 5 6 2 3 3 3 2 3 2 1 3 4 2 2 5 7 7 7 6 6 6 6 6 6 6 5 4 4 3 3 2 3 3 3 3 2 2 2 2
5 5 6 5 5 7 8 4 2 3 4 3 3 5 4 5 3 3 2 4 5 5 5 6 6 6 6 5 6 6 5 5 4 3 3 3 3 4 3 3 2 2 3 2
4 4 4 5 4 7 6 5 1 4 7 3 4 6 7 4 5 4 4 4 6 6 6 7 7 6 5 5 6 6 5 4 3 3 3 3 3 3 3 3 2 2 3 3
4 4 4 4 4 6 4 1 4 6 3 2 3 4 4 3 3 4 5 6 7 7 7 7 6 5 5 6 6 5 4 3 4 4 4 3 3 3 3 4 3 3 3 4
3 5 5 6 6 5 3 4 4 2 2 2 3 3 5 4 3 3 4 6 7 7 7 6 7 6 4 3 5 5 3 4 5 5 4 3 3 3 3 4 4 3 3 3
2 1 2 2 5 5 5 4 3 2 2 2 3 5 5 5 4 4 5 6 6 6 6 6 7 7 4 2 3 4 4 5 5 5 4 3 4 4 4 3 3 3 2 2
3 1 1 3 5 5 6 4 3 2 0 1 1 1 4 5 4 4 6 6 6 5 5 6 7 7 6 4 3 3 4 5 5 4 4 3 3 4 3 3 3 2 1 1
4 4 4 6 6 4 6 5 3 1 1 2 2 1 1 3 4 5 7 6 6 6 5 6 6 6 5 5 4 3 3 5 6 4 3 3 3 3 3 3 3 6 4 3
Wind_Direction
29 71 154 206 191 168 147 139 152 225 136 120 143 162 168 165 168 179 185 185 185 207 197 167 168 164 158 158 159 168 169 171 153 144 150 163 211 216 230 230 221 215 214 206
41 331 230 169 151 135 138 130 133 58 60 105 120 81 152 176 197 197 193 194 191 195 187 174 161 162 169 170 172 174 186 184 181 169 159 164 176 200 218 245 237 226 219 214
162 234 159 130 129 128 149 161 167 149 68 52 80 5 336 256 224 214 197 195 193 192 196 189 178 174 168 178 187 191 194 192 189 170 127 100 78 57 47 290 263 254 235 228
211 254 146 125 158 145 202 190 149 132 110 47 78 258 287 273 258 233 217 203 200 192 186 183 178 179 184 192 181 178 178 182 176 156 157 162 174 198 222 228 241 278 265 245
241 190 131 158 201 159 164 100 109 106 107 73 38 127 284 302 258 248 228 212 202 186 180 184 185 184 182 177 167 167 158 170 169 161 175 181 200 210 213 218 233 283 289 264
244 263 203 190 97 122 120 77 61 54 69 64 268 159 270 236 229 237 221 210 198 183 177 179 174 158 162 161 159 163 172 194 185 173 179 188 201 201 202 230 233 259 278 274
336 322 294 149 97 53 95 94 50 14 14 255 270 197 249 251 234 219 210 203 191 176 170 170 168 166 170 170 170 169 176 198 186 174 184 185 189 191 205 225 226 238 262 267
152 287 274 191 164 161 152 135 153 178 206 265 317 240 258 273 258 212 189 183 170 170 174 180 180 178 181 178 172 169 179 194 185 182 196 183 176 189 225 228 229 228 243 258
167 242 294 286 151 133 129 136 149 126 127 87 286 288 304 334 303 161 166 171 180 182 180 185 183 181 183 180 179 180 181 189 190 187 181 174 175 194 232 238 236 253 264 270
154 204 294 305 78 41 128 138 105 115 137 205 288 276 246 234 217 199 190 195 192 180 179 183 182 182 182 181 177 171 170 183 186 177 182 179 175 192 217 202 215 245 289 342
132 146 310 17 143 166 115 96 100 105 139 149 213 265 228 208 202 200 204 196 185 184 186 188 179 166 158 155 162 168 168 170 172 177 174 160 156 163 158 158 173 164 21 37
124 123 220 274 294 238 140 150 143 144 182 164 170 260 276 213 203 197 200 192 181 179 176 172 164 153 153 160 164 169 168 171 175 164 149 153 126 115 126 124 109 86 55 34
131 114 84 352 348 13 79 114 124 119 115 148 167 259 318 182 188 193 189 185 176 170 164 157 154 158 161 161 160 160 162 165 153 141 139 127 121 125 128 122 104 88 71 48
119 111 159 189 210 205 182 149 145 125 142 184 215 240 281 247 210 202 193 187 174 169 167 163 164 162 158 157 154 152 162 161 140 127 128 134 151 156 148 127 102 97 95 76
102 127 182 214 219 190 188 189 177 177 181 183 221 218 238 230 214 202 188 175 167 171 173 176 173 165 158 155 156 158 155 143 139 134 141 159 150 133 118 105 99 94 88 85
73 119 115 306 278 197 203 218 193 200 189 206 216 245 252 238 183 176 179 177 180 185 184 177 171 166 166 167 169 163 157 157 148 149 165 158 143 135 121 106 98 95 86 76
94 114 109 234 302 61 265 230 192 188 195 177 202 231 228 190 194 192 187 184 188 188 182 177 177 179 176 173 169 169 171 156 146 157 158 150 153 145 134 112 99 98 93 85
143 124 128 135 96 204 239 253 187 181 214 209 222 234 202 210 212 180 169 178 185 183 179 179 177 173 165 160 154 151 148 150 151 154 157 164 159 149 131 116 111 101 91 87
157 140 128 132 172 256 287 266 173 181 247 226 203 214 109 92 74 33 164 171 181 178 170 169 168 162 152 152 149 140 142 145 148 158 166 165 156 144 135 126 123 123 103 77
74 104 123 133 157 217 242 273 268 145 254 252 182 173 152 112 131 241 220 158 153 143 140 140 134 128 139 149 146 140 146 147 159 168 159 145 142 145 146 140 131 114 110 107
63 65 127 153 189 246 256 287 69 160 241 248 183 174 164 180 202 197 159 144 137 131 131 132 129 136 144 141 139 142 148 166 171 138 120 117 126 140 140 130 119 110 106 96
161 147 168 148 172 242 275 101 168 218 265 211 188 177 163 160 142 140 139 139 133 128 124 125 127 129 129 136 141 144 158 162 129 122 118 118 117 123 122 118 111 105 108 101
184 188 186 188 209 246 267 235 254 228 226 231 187 173 148 144 154 147 142 140 137 134 131 128 128 118 112 128 140 147 158 131 124 120 120 118 108 97 111 119 119 111 105 108
288 152 151 260 275 283 289 284 284 260 244 242 183 168 160 160 164 157 148 143 141 138 137 131 127 126 130 133 126 134 129 127 122 123 123 120 115 102 91 93 104 112 117 122
238 189 163 264 281 308 307 300 299 319 8 92 99 159 174 157 156 160 152 150 149 140 135 135 138 140 142 135 121 117 125 124 119 120 123 119 119 122 109 88 71 91 83 156
216 193 196 234 239 235 271 290 296 282 237 172 151 129 169 162 165 159 154 150 146 140 135 135 133 132 133 132 128 126 130 130 130 131 135 134 132 127 124 115 78 51 54 54
Height
1497 1504 1511 1509 1508 1510 1514 1521 1526 1522 1517 1521 1526 1527 1526 1527 1528 1529 1530 1531 1532 1533 1534 1536 1537 1538 1540 1541 1542 1543 1544 1545 1545 1546 1547 1547 1549 1550 1551 1552 1553 1554 1554 1555
1505 1509 1503 1502 1504 1508 1513 1521 1524 1521 1518 1522 1527 1528 1526 1526 1526 1526 1527 1529 1530 1532 1533 1534 1535 1537 1538 1540 1541 1542 1543 1544 1545 1546 1547 1547 1548 1549 1550 1551 1552 1552 1553 1554
1506 1504 1500 1502 1506 1511 1515 1520 1522 1524 1523 1524 1528 1534 1530 1526 1526 1526 1527 1528 1529 1530 1531 1533 1534 1536 1537 1539 1540 1542 1543 1544 1545 1546 1546 1547 1548 1548 1549 1550 1550 1551 1552 1552
1503 1500 1500 1503 1506 1509 1518 1511 1515 1520 1530 1540 1535 1550 1535 1529 1526 1524 1525 1526 1527 1528 1530 1532 1533 1535 1536 1538 1540 1541 1543 1544 1545 1545 1546 1546 1547 1547 1548 1548 1549 1550 1550 1550
1503 1499 1501 1504 1503 1505 1511 1509 1515 1522 1533 1542 1541 1549 1542 1530 1529 1523 1522 1523 1524 1526 1528 1530 1532 1534 1536 1538 1540 1541 1542 1543 1544 1544 1545 1545 1546 1546 1546 1547 1547 1548 1548 1548
1500 1497 1497 1499 1499 1501 1507 1515 1523 1532 1541 1554 1546 1549 1545 1533 1525 1520 1519 1520 1522 1524 1527 1529 1532 1534 1536 1537 1539 1540 1541 1542 1542 1543 1543 1544 1544 1545 1545 1545 1545 1546 1546 1547
1505 1500 1496 1496 1502 1506 1509 1529 1551 1554 1563 1559 1545 1547 1541 1520 1516 1516 1516 1518 1520 1523 1526 1528 1530 1532 1534 1536 1538 1539 1540 1541 1541 1541 1542 1542 1542 1543 1543 1543 1544 1544 1544 1545
1515 1517 1500 1496 1500 1508 1513 1523 1549 1561 1564 1559 1547 1547 1530 1515 1513 1513 1515 1517 1519 1522 1525 1527 1529 1531 1533 1535 1537 1538 1539 1539 1540 1540 1540 1541 1541 1542 1542 1542 1543 1543 1543 1543
1516 1515 1498 1495 1495 1501 1515 1523 1526 1546 1553 1559 1552 1539 1523 1513 1512 1512 1514 1516 1518 1521 1523 1526 1528 1530 1532 1534 1535 1537 1538 1539 1539 1539 1540 1540 1541 1541 1541 1541 1542 1542 1542 1542
1504 1512 1501 1497 1496 1502 1506 1518 1533 1546 1560 1563 1550 1543 1535 1519 1515 1513 1514 1515 1516 1519 1522 1525 1527 1529 1531 1533 1535 1536 1537 1538 1538 1538 1539 1539 1540 1540 1540 1541 1540 1540 1540 1540
1499 1511 1509 1503 1503 1507 1512 1520 1532 1544 1546 1560 1560 1546 1514 1511 1509 1510 1510 1512 1514 1517 1520 1523 1526 1529 1531 1533 1534 1535 1536 1537 1537 1538 1538 1538 1538 1539 1539 1539 1539 1539 1538 1538
1500 1512 1519 1510 1501 1500 1502 1512 1524 1536 1545 1550 1552 1540 1504 1504 1504 1506 1508 1511 1513 1516 1519 1522 1525 1527 1530 1531 1533 1534 1535 1536 1536 1537 1537 1537 1537 1537 1537 1537 1538 1538 1537 1537
1499 1512 1526 1522 1517 1508 1507 1511 1517 1527 1541 1550 1549 1533 1504 1503 1504 1505 1507 1510 1513 1516 1519 1521 1524 1526 1528 1530 1532 1533 1534 1535 1535 1536 1536 1536 1536 1536 1536 1536 1536 1536 1536 1536
1494 1510 1519 1526 1522 1512 1511 1511 1515 1521 1537 1543 1536 1523 1509 1506 1505 1505 1506 1509 1511 1514 1517 1520 1522 1525 1527 1529 1531 1532 1533 1534 1534 1535 1535 1535 1535 1536 1536 1535 1535 1535 1535 1535
1494 1509 1509 1508 1506 1505 1506 1507 1510 1514 1519 1526 1520 1518 1507 1502 1502 1502 1505 1507 1510 1512 1515 1518 1520 1523 1525 1527 1529 1531 1532 1533 1534 1534 1534 1534 1534 1535 1535 1534 1534 1534 1534 1534
1498 1507 1508 1508 1504 1503 1505 1505 1506 1508 1510 1512 1511 1510 1499 1499 1500 1502 1504 1506 1508 1510 1513 1516 1518 1521 1524 1526 1527 1529 1530 1531 1532 1533 1533 1533 1533 1533 1533 1533 1533 1533 1533 1533
1503 1507 1515 1518 1510 1505 1513 1505 1504 1504 1503 1506 1510 1503 1496 1497 1497 1498 1501 1503 1506 1508 1511 1514 1516 1519 1522 1524 1526 1527 1529 1530 1530 1531 1531 1532 1532 1532 1532 1532 1532 1532 1532 1532
1502 1509 1518 1522 1515 1523 1509 1495 1496 1498 1498 1498 1497 1495 1494 1494 1494 1497 1499 1501 1504 1506 1509 1512 1515 1517 1520 1523 1525 1526 1528 1528 1529 1529 1530 1530 1531 1531 1531 1531 1531 1531 1531 1530
1496 1505 1518 1526 1525 1517 1503 1494 1495 1498 1499 1494 1494 1493 1494 1494 1495 1497 1498 1500 1502 1504 1507 1511 1514 1517 1519 1521 1523 1524 1526 1527 1527 1528 1529 1529 1530 1530 1530 1530 1529 1529 1529 1530
1498 1501 1513 1522 1522 1523 1504 1491 1490 1494 1500 1491 1491 1492 1493 1494 1500 1498 1496 1498 1500 1503 1506 1509 1512 1515 1517 1520 1522 1523 1524 1525 1526 1527 1528 1528 1529 1529 1529 1529 1529 1529 1528 1529
1505 1509 1514 1518 1517 1510 1494 1489 1489 1504 1500 1488 1488 1489 1491 1492 1493 1494 1495 1497 1499 1502 1506 1508 1510 1513 1516 1519 1521 1522 1522 1523 1525 1526 1527 1527 1527 1527 1528 1528 1528 1528 1528 1528
1506 1511 1514 1517 1516 1510 1489 1489 1493 1493 1487 1486 1486 1487 1489 1490 1490 1492 1494 1496 1499 1501 1505 1507 1509 1512 1515 1517 1518 1520 1521 1522 1523 1524 1525 1526 1526 1526 1526 1526 1526 1527 1527 1527
1502 1502 1503 1504 1502 1491 1488 1488 1487 1486 1485 1485 1485 1486 1487 1489 1490 1492 1494 1497 1499 1501 1504 1506 1509 1511 1514 1516 1517 1518 1519 1521 1522 1523 1523 1524 1524 1524 1524 1525 1525 1526 1526 1526
1498 1496 1498 1497 1492 1488 1486 1485 1484 1484 1484 1484 1484 1485 1487 1488 1489 1491 1494 1496 1499 1501 1503 1505 1507 1509 1512 1515 1516 1517 1518 1520 1521 1522 1522 1523 1524 1523 1524 1524 1524 1525 1525 1525
1496 1495 1496 1495 1490 1487 1484 1484 1483 1483 1483 1483 1484 1486 1487 1487 1488 1491 1492 1495 1498 1500 1503 1505 1507 1508 1510 1513 1515 1517 1518 1518 1519 1521 1521 1522 1523 1523 1523 1524 1524 1524 1525 1525
1492 1493 1494 1492 1487 1487 1484 1484 1484 1483 1482 1482 1483 1484 1486 1487 1488 1490 1492 1495 1498 1500 1502 1504 1506 1508 1510 1512 1514 1516 1517 1518 1518 1519 1521 1521 1522 1522 1522 1523 1523 1523 1524 1524